Change the Weather History Date:

Saturday, October 5, 2013

  Actual Average Record
Temperature  
Mean Temperature 57 °F 50 °F  
Max Temperature 60 °F 60 °F 84 °F (1922)
Min Temperature 54 °F 40 °F 24 °F (1952)
Degree Days  
Heating Degree Days 8 15  
Month to date heating degree days 34 71  
Since 1 July heating degree days 262 364  
Cooling Degree Days 0 0  
Month to date cooling degree days 0 0  
Year to date cooling degree days 506 405  
Growing Degree Days 8 (Base 50)    
Moisture  
Dew Point 56 °F    
Average Humidity 95    
Maximum Humidity 100    
Minimum Humidity 90    
Precipitation  
Precipitation 1.54 in 0.12 in 1.54 in (2013)
Month to date precipitation 2.65 0.57  
Year to date precipitation 33.04 26.68  
Snow  
Snow 0.00 in 0.00 in T in (1991)
Month to date snowfall 0.0 0.1  
Since 1 July snowfall 0.0 0.1  
Snow Depth 0.00 in    
Sea Level Pressure  
Sea Level Pressure 29.86 in    
Wind  
Wind Speed 10 mph (East)    
Max Wind Speed 20 mph    
Max Gust Speed 28 mph    
Visibility 4 miles    
Events Rain , Thunderstorm    
T = Trace of Precipitation, MM = Missing Value Source: NWS Daily Summary

Daily Weather History Graph

Daily Weather History Graph

Search for Another Location

Airport or City:

Trip Planner

Search our weather history database for the weather conditions in past years. The results will help you decide how hot, cold, wet, or windy it might be!

Date:

Astronomy

Oct. 05, 2013 Rise Set
Actual Time 7:01 AM CDT 6:31 PM CDT
Civil Twilight 6:32 AM CDT 7:00 PM CDT
Nautical Twilight 5:58 AM CDT 7:34 PM CDT
Astronomical Twilight 5:24 AM CDT 8:08 PM CDT
Moon 7:44 AM CDT (10/5) 6:45 PM CDT (10/5)
Length of Visible Light 12h 27m
Length of Day
11h 29m
New Moon, 1% of the Moon is Illuminated
Oct 5
New Moon
Oct 11
First Quarter
Oct 18
Full
Oct 26
Last Quarter
Nov 3
New

Hourly Weather History & Observations

Time (CDT) Temp. Dew Point Humidity Pressure Visibility Wind Dir Wind Speed Gust Speed Precip Events Conditions
12:39 AM 55.4 °F 53.6 °F 94% 30.00 in 7.0 mi Variable 4.6 mph - 0.07 in Rain , Thunderstorm Rain
12:54 AM 55.0 °F 54.0 °F 96% 30.02 in 2.0 mi East 9.2 mph - 0.25 in Rain , Thunderstorm Heavy Thunderstorms and Rain
1:10 AM 55.4 °F 53.6 °F 94% 30.00 in 4.0 mi NNE 4.6 mph - 0.07 in Rain , Thunderstorm Thunderstorms and Rain
1:34 AM 55.4 °F 53.6 °F 94% 30.00 in 5.0 mi Calm Calm - 0.16 in Rain , Thunderstorm Rain
1:43 AM 55.4 °F 53.6 °F 94% 30.03 in 4.0 mi Calm Calm - 0.20 in Rain , Thunderstorm Heavy Rain
1:54 AM 55.0 °F 53.1 °F 93% 30.01 in 2.0 mi Calm Calm - 0.27 in Rain , Thunderstorm Heavy Thunderstorms and Rain
2:07 AM 55.4 °F 53.6 °F 94% 29.98 in 5.0 mi East 8.1 mph - 0.04 in Rain , Thunderstorm Light Thunderstorms and Rain
2:38 AM 55.4 °F 53.6 °F 94% 29.97 in 2.5 mi East 11.5 mph 16.1 mph 0.21 in Rain , Thunderstorm Heavy Thunderstorms and Rain
2:54 AM 55.0 °F 54.0 °F 96% 29.98 in 5.0 mi East 12.7 mph 19.6 mph 0.30 in Rain , Thunderstorm Rain
3:27 AM 55.4 °F 53.6 °F 94% 29.93 in 7.0 mi East 18.4 mph - 0.09 in Rain Rain
3:47 AM 55.4 °F 53.6 °F 94% 29.92 in 5.0 mi East 15.0 mph - 0.16 in Rain , Thunderstorm Heavy Thunderstorms and Rain
3:54 AM 55.0 °F 54.0 °F 96% 29.97 in 4.0 mi East 11.5 mph 23.0 mph 0.21 in Rain , Thunderstorm Heavy Thunderstorms and Rain
4:06 AM 55.4 °F 53.6 °F 94% 29.98 in 3.0 mi ESE 6.9 mph - 0.08 in Rain , Thunderstorm Heavy Rain
4:14 AM 55.4 °F 53.6 °F 94% 30.01 in 2.5 mi West 10.4 mph - 0.14 in Rain , Thunderstorm Heavy Rain
4:33 AM 55.4 °F 53.6 °F 94% 30.00 in 2.5 mi Variable 3.5 mph - 0.28 in Rain Heavy Rain
4:39 AM 55.4 °F 55.4 °F 100% 30.00 in 3.0 mi Variable 3.5 mph - 0.32 in Rain Heavy Rain
4:54 AM 55.0 °F 54.0 °F 96% 29.95 in 4.0 mi ENE 10.4 mph - 0.38 in Rain Rain
5:37 AM 55.4 °F 53.6 °F 94% 29.91 in 10.0 mi East 13.8 mph 20.7 mph 0.02 in   Overcast
5:54 AM 55.9 °F 54.0 °F 93% 29.96 in 10.0 mi ESE 10.4 mph 27.6 mph 0.02 in   Overcast
6:54 AM 55.9 °F 55.0 °F 97% 29.91 in 10.0 mi East 11.5 mph - 0.03 in   Overcast
7:54 AM 55.9 °F 55.0 °F 97% 29.89 in 10.0 mi East 11.5 mph 18.4 mph N/A   Overcast
8:54 AM 57.9 °F 55.9 °F 93% 29.91 in 10.0 mi ESE 15.0 mph - N/A   Overcast
9:54 AM 59.0 °F 57.0 °F 93% 29.91 in 9.0 mi ESE 9.2 mph - 0.00 in Rain Light Rain
10:54 AM 59.0 °F 57.9 °F 96% 29.91 in 2.0 mi East 10.4 mph - 0.00 in   Overcast
11:06 AM 59.0 °F 57.2 °F 94% 29.90 in 1.5 mi ESE 10.4 mph - N/A   Overcast
11:54 AM 59.0 °F 57.9 °F 96% 29.92 in 1.2 mi East 8.1 mph - 0.01 in   Overcast
12:26 PM 59.0 °F 57.2 °F 94% 29.90 in 3.0 mi East 6.9 mph - N/A   Overcast
12:54 PM 60.1 °F 57.9 °F 93% 29.88 in 8.0 mi ENE 10.4 mph - N/A   Overcast
1:13 PM 59.0 °F 57.2 °F 94% 29.86 in 8.0 mi ESE 8.1 mph - 0.00 in Rain Light Rain
1:54 PM 60.1 °F 57.9 °F 93% 29.88 in 3.0 mi East 5.8 mph - 0.00 in   Overcast
2:06 PM 60.8 °F 59.0 °F 94% 29.85 in 1.8 mi East 4.6 mph - N/A   Overcast
2:17 PM 60.8 °F 59.0 °F 94% 29.85 in 1.8 mi East 8.1 mph - N/A   Overcast
2:33 PM 60.8 °F 59.0 °F 94% 29.83 in 2.0 mi East 8.1 mph - N/A   Overcast
2:47 PM 60.8 °F 59.0 °F 94% 29.83 in 3.0 mi East 9.2 mph - N/A   Overcast
2:54 PM 60.1 °F 57.9 °F 93% 29.84 in 2.5 mi East 6.9 mph - 0.01 in   Overcast
3:26 PM 60.8 °F 57.2 °F 88% 29.80 in 1.8 mi East 10.4 mph 17.3 mph N/A   Overcast
3:35 PM 60.8 °F 59.0 °F 94% 29.80 in 2.0 mi East 8.1 mph - N/A   Overcast
3:54 PM 59.0 °F 57.9 °F 96% 29.82 in 2.5 mi East 8.1 mph - N/A   Overcast
4:27 PM 59.0 °F 57.2 °F 94% 29.80 in 3.0 mi East 6.9 mph - N/A   Overcast
4:54 PM 59.0 °F 57.9 °F 96% 29.81 in 3.0 mi East 12.7 mph 20.7 mph N/A   Overcast
5:03 PM 59.0 °F 57.2 °F 94% 29.81 in 2.5 mi East 11.5 mph 19.6 mph N/A   Overcast
5:18 PM 59.0 °F 57.2 °F 94% 29.81 in 3.0 mi ESE 5.8 mph - N/A   Overcast
5:45 PM 59.0 °F 57.2 °F 94% 29.80 in 2.5 mi East 10.4 mph - N/A   Overcast
5:54 PM 59.0 °F 57.9 °F 96% 29.82 in 2.0 mi East 11.5 mph - N/A   Overcast
6:11 PM 59.0 °F 57.2 °F 94% 29.80 in 1.8 mi East 15.0 mph - 0.00 in Rain Light Rain
6:21 PM 59.0 °F 57.2 °F 94% 29.79 in 2.0 mi East 12.7 mph - 0.02 in Rain Rain
6:35 PM 57.2 °F 57.2 °F 100% 29.78 in 3.0 mi East 12.7 mph 20.7 mph 0.02 in   Overcast
6:54 PM 57.9 °F 57.9 °F 100% 29.77 in 4.0 mi East 15.0 mph - 0.02 in   Overcast
7:54 PM 57.9 °F 57.0 °F 97% 29.77 in 10.0 mi East 13.8 mph - N/A   Overcast
8:34 PM 57.2 °F 57.2 °F 100% 29.74 in 2.0 mi East 12.7 mph 18.4 mph 0.01 in Rain Rain
8:54 PM 57.0 °F 57.0 °F 100% 29.75 in 2.0 mi East 13.8 mph 21.9 mph 0.03 in Rain Heavy Rain
9:06 PM 57.2 °F 57.2 °F 100% 29.73 in 4.0 mi East 15.0 mph 24.2 mph 0.02 in Rain Light Rain
9:51 PM 57.2 °F 57.2 °F 100% 29.72 in 2.5 mi East 10.4 mph 18.4 mph 0.10 in Rain Light Rain
9:54 PM 57.0 °F 57.0 °F 100% 29.73 in 5.0 mi East 9.2 mph - 0.10 in Rain Light Rain
10:11 PM 57.2 °F 57.2 °F 100% 29.71 in 7.0 mi East 11.5 mph - 0.02 in Rain Rain
10:46 PM 57.2 °F 57.2 °F 100% 29.71 in 1.8 mi West 6.9 mph - 0.13 in Rain Heavy Rain
10:54 PM 57.9 °F 57.0 °F 97% 29.71 in 2.0 mi WNW 4.6 mph - 0.16 in Rain Rain
11:02 PM 57.2 °F 57.2 °F 100% 29.71 in 9.0 mi Calm Calm - 0.01 in Rain Light Rain
11:38 PM 55.4 °F 53.6 °F 94% 29.71 in 8.0 mi WNW 11.5 mph - 0.03 in Rain Light Rain
11:54 PM 55.9 °F 54.0 °F 93% 29.73 in 10.0 mi WNW 9.2 mph - 0.03 in Rain Light Rain